QPF
0.08 0.09 0.10 0.11 0.13 0.16 0.15 0.12 0.09 0.07 0.07 0.09 0.11 0.14 0.16 0.15 0.13 0.11 0.08 0.05 0.04 0.04 0.05 0.04 0.05 0.06 0.06 0.07 0.07 0.06 0.05 0.04 0.04 0.02 0.00 0.00 0.00 0.00 0.01 0.01 0.01 0.01 0.00
0.06 0.06 0.08 0.08 0.09 0.11 0.12 0.10 0.08 0.07 0.07 0.06 0.07 0.08 0.11 0.12 0.12 0.12 0.12 0.09 0.06 0.04 0.04 0.05 0.05 0.05 0.05 0.05 0.05 0.05 0.05 0.05 0.04 0.04 0.02 0.01 0.00 0.00 0.00 0.01 0.01 0.01 0.01
0.06 0.06 0.07 0.07 0.06 0.06 0.06 0.05 0.06 0.06 0.06 0.06 0.06 0.05 0.06 0.07 0.06 0.06 0.06 0.06 0.05 0.04 0.03 0.03 0.05 0.06 0.05 0.03 0.03 0.04 0.03 0.04 0.04 0.05 0.05 0.04 0.02 0.01 0.00 0.00 0.00 0.00 0.00
0.04 0.04 0.04 0.04 0.03 0.04 0.04 0.03 0.04 0.04 0.04 0.03 0.04 0.04 0.03 0.02 0.02 0.02 0.02 0.02 0.01 0.01 0.01 0.02 0.03 0.06 0.09 0.06 0.03 0.02 0.02 0.02 0.02 0.02 0.03 0.04 0.04 0.03 0.02 0.01 0.00 0.00 0.00
0.02 0.03 0.03 0.03 0.02 0.02 0.01 0.01 0.02 0.03 0.03 0.01 0.01 0.01 0.01 0.01 0.01 0.01 0.00 0.00 0.00 0.00 0.00 0.01 0.01 0.02 0.05 0.09 0.09 0.05 0.03 0.02 0.01 0.01 0.01 0.02 0.03 0.04 0.04 0.03 0.02 0.01 0.00
0.01 0.02 0.02 0.02 0.02 0.01 0.00 0.00 0.00 0.00 0.01 0.01 0.00 0.00 0.00 0.00 0.00 0.00 0.00 0.00 0.00 0.00 0.00 0.00 0.01 0.01 0.02 0.03 0.05 0.06 0.06 0.04 0.02 0.01 0.01 0.01 0.01 0.02 0.03 0.03 0.03 0.02 0.01
0.01 0.01 0.01 0.01 0.01 0.00 0.00 0.00 0.00 0.00 0.00 0.00 0.00 0.00 0.00 0.00 0.00 0.00 0.00 0.00 0.00 0.00 0.00 0.00 0.00 0.01 0.01 0.01 0.02 0.02 0.04 0.04 0.04 0.03 0.01 0.01 0.00 0.00 0.01 0.02 0.03 0.02 0.01
0.00 0.00 0.00 0.00 0.00 0.00 0.00 0.00 0.00 0.00 0.00 0.00 0.00 0.00 0.00 0.00 0.00 0.00 0.00 0.00 0.00 0.00 0.00 0.00 0.00 0.00 0.01 0.01 0.01 0.01 0.01 0.02 0.03 0.03 0.03 0.02 0.01 0.01 0.01 0.01 0.02 0.02 0.02
0.00 0.00 0.00 0.00 0.00 0.00 0.00 0.00 0.00 0.00 0.00 0.00 0.00 0.00 0.00 0.00 0.00 0.00 0.00 0.00 0.00 0.00 0.00 0.00 0.00 0.00 0.00 0.01 0.01 0.01 0.01 0.01 0.01 0.02 0.03 0.03 0.03 0.02 0.02 0.02 0.02 0.02 0.01
0.00 0.00 0.00 0.00 0.00 0.00 0.00 0.00 0.00 0.00 0.00 0.00 0.00 0.00 0.00 0.00 0.00 0.00 0.00 0.00 0.00 0.00 0.00 0.00 0.00 0.00 0.00 0.00 0.01 0.01 0.01 0.01 0.01 0.01 0.01 0.03 0.04 0.04 0.04 0.04 0.04 0.03 0.02
0.00 0.00 0.00 0.00 0.00 0.00 0.00 0.00 0.00 0.00 0.00 0.00 0.00 0.00 0.00 0.00 0.00 0.00 0.00 0.00 0.00 0.00 0.00 0.00 0.00 0.00 0.00 0.00 0.00 0.01 0.01 0.01 0.01 0.01 0.01 0.01 0.03 0.04 0.05 0.05 0.04 0.04 0.03
0.00 0.00 0.00 0.00 0.00 0.00 0.00 0.00 0.00 0.00 0.00 0.00 0.00 0.00 0.00 0.00 0.00 0.00 0.00 0.00 0.00 0.00 0.00 0.00 0.00 0.00 0.00 0.00 0.00 0.00 0.01 0.01 0.01 0.01 0.01 0.01 0.01 0.02 0.02 0.03 0.03 0.03 0.03
0.00 0.00 0.00 0.00 0.00 0.00 0.00 0.00 0.00 0.00 0.00 0.00 0.00 0.00 0.00 0.00 0.00 0.00 0.00 0.00 0.00 0.00 0.00 0.00 0.00 0.00 0.00 0.00 0.00 0.00 0.00 0.01 0.01 0.01 0.01 0.01 0.01 0.00 0.01 0.01 0.01 0.01 0.01
0.00 0.00 0.00 0.00 0.00 0.00 0.00 0.00 0.00 0.00 0.00 0.00 0.00 0.00 0.00 0.00 0.00 0.00 0.00 0.00 0.00 0.00 0.00 0.00 0.00 0.00 0.00 0.00 0.00 0.00 0.00 0.00 0.01 0.01 0.01 0.01 0.01 0.01 0.00 0.00 0.01 0.01 0.01
0.00 0.00 0.00 0.00 0.00 0.00 0.00 0.00 0.00 0.00 0.00 0.00 0.00 0.00 0.00 0.00 0.00 0.00 0.00 0.00 0.00 0.00 0.00 0.00 0.00 0.00 0.00 0.00 0.00 0.00 0.00 0.00 0.00 0.01 0.01 0.01 0.02 0.01 0.01 0.01 0.00 0.00 0.00
0.00 0.00 0.00 0.00 0.00 0.00 0.00 0.00 0.00 0.00 0.00 0.00 0.00 0.00 0.00 0.00 0.00 0.00 0.00 0.00 0.00 0.00 0.00 0.00 0.00 0.00 0.00 0.00 0.00 0.00 0.00 0.00 0.00 0.00 0.01 0.01 0.01 0.01 0.01 0.01 0.01 0.01 0.00
0.00 0.00 0.00 0.00 0.00 0.00 0.00 0.00 0.00 0.00 0.00 0.00 0.00 0.00 0.00 0.00 0.00 0.00 0.00 0.00 0.00 0.00 0.00 0.00 0.00 0.00 0.00 0.00 0.00 0.00 0.00 0.00 0.00 0.00 0.01 0.01 0.01 0.01 0.01 0.01 0.00 0.00 0.01
0.00 0.00 0.00 0.00 0.00 0.00 0.00 0.00 0.00 0.00 0.00 0.00 0.00 0.00 0.00 0.00 0.00 0.00 0.00 0.00 0.00 0.00 0.00 0.00 0.00 0.00 0.00 0.00 0.00 0.00 0.00 0.00 0.00 0.00 0.00 0.00 0.01 0.01 0.01 0.01 0.01 0.00 0.00
0.00 0.00 0.00 0.00 0.00 0.00 0.00 0.00 0.00 0.00 0.00 0.00 0.00 0.00 0.00 0.00 0.00 0.00 0.00 0.00 0.00 0.00 0.00 0.00 0.00 0.00 0.00 0.00 0.00 0.00 0.00 0.00 0.00 0.00 0.00 0.00 0.00 0.00 0.01 0.01 0.01 0.00 0.00
0.00 0.00 0.00 0.00 0.00 0.00 0.00 0.00 0.00 0.00 0.00 0.00 0.00 0.00 0.00 0.00 0.00 0.00 0.00 0.00 0.00 0.00 0.00 0.00 0.00 0.00 0.00 0.00 0.00 0.00 0.00 0.00 0.00 0.00 0.00 0.00 0.00 0.00 0.01 0.01 0.00 0.00 0.00
0.00 0.00 0.00 0.00 0.00 0.00 0.00 0.00 0.00 0.00 0.00 0.00 0.00 0.00 0.00 0.00 0.00 0.00 0.00 0.00 0.00 0.00 0.00 0.00 0.00 0.00 0.00 0.00 0.00 0.00 0.00 0.00 0.00 0.00 0.00 0.00 0.00 0.00 0.00 0.00 0.00 0.00 0.00
0.00 0.00 0.01 0.01 0.00 0.00 0.00 0.00 0.00 0.00 0.00 0.00 0.00 0.00 0.00 0.00 0.00 0.00 0.00 0.00 0.00 0.00 0.00 0.00 0.00 0.00 0.00 0.00 0.00 0.00 0.00 0.00 0.00 0.00 0.00 0.00 0.00 0.00 0.00 0.00 0.00 0.01 0.01
0.00 0.00 0.01 0.01 0.01 0.01 0.01 0.00 0.00 0.00 0.00 0.00 0.00 0.00 0.00 0.00 0.00 0.00 0.00 0.00 0.00 0.00 0.00 0.00 0.00 0.00 0.00 0.00 0.00 0.00 0.00 0.00 0.00 0.00 0.00 0.01 0.01 0.01 0.00 0.01 0.01 0.01 0.01
0.00 0.00 0.00 0.00 0.00 0.00 0.00 0.00 0.00 0.00 0.00 0.00 0.00 0.00 0.00 0.00 0.00 0.00 0.00 0.00 0.00 0.00 0.00 0.00 0.00 0.00 0.00 0.00 0.00 0.00 0.00 0.00 0.00 0.00 0.00 0.01 0.01 0.01 0.01 0.01 0.01 0.01 0.01
0.00 0.00 0.00 0.00 0.00 0.00 0.00 0.00 0.00 0.00 0.00 0.00 0.00 0.00 0.00 0.00 0.00 0.00 0.00 0.00 0.00 0.00 0.00 0.00 0.00 0.00 0.00 0.00 0.00 0.00 0.00 0.00 0.00 0.01 0.00 0.00 0.01 0.01 0.01 0.01 0.01 0.01 0.01
0.00 0.00 0.00 0.00 0.00 0.00 0.00 0.00 0.00 0.00 0.00 0.00 0.00 0.00 0.00 0.00 0.00 0.00 0.00 0.00 0.00 0.00 0.00 0.00 0.00 0.00 0.00 0.00 0.00 0.00 0.01 0.00 0.01 0.01 0.01 0.01 0.01 0.01 0.01 0.01 0.01 0.01 0.01
MSLP
1014.78 1015.46 1015.98 1016.31 1016.44 1016.44 1016.39 1016.36 1016.45 1016.71 1017.15 1017.74 1018.41 1019.10 1019.72 1020.22 1020.56 1020.75 1020.82 1020.82 1020.78 1020.77 1020.79 1020.86 1020.95 1021.03 1021.09 1021.09 1021.03 1020.93 1020.79 1020.65 1020.53 1020.47 1020.46 1020.51 1020.61 1020.72 1020.84 1020.94 1021.02 1021.08 1021.12
1015.07 1015.74 1016.24 1016.52 1016.63 1016.59 1016.51 1016.47 1016.55 1016.81 1017.25 1017.84 1018.51 1019.19 1019.81 1020.29 1020.63 1020.81 1020.89 1020.90 1020.89 1020.91 1020.97 1021.08 1021.20 1021.32 1021.40 1021.41 1021.36 1021.26 1021.11 1020.97 1020.84 1020.77 1020.75 1020.77 1020.83 1020.91 1020.99 1021.06 1021.11 1021.16 1021.21
1015.15 1015.81 1016.29 1016.58 1016.69 1016.66 1016.59 1016.57 1016.67 1016.93 1017.37 1017.95 1018.60 1019.26 1019.84 1020.31 1020.62 1020.80 1020.88 1020.91 1020.94 1020.99 1021.09 1021.23 1021.39 1021.53 1021.63 1021.66 1021.61 1021.51 1021.37 1021.23 1021.11 1021.04 1021.01 1021.03 1021.07 1021.12 1021.16 1021.20 1021.22 1021.24 1021.28
1014.99 1015.65 1016.15 1016.47 1016.62 1016.65 1016.63 1016.65 1016.78 1017.06 1017.49 1018.05 1018.67 1019.29 1019.84 1020.26 1020.56 1020.73 1020.82 1020.87 1020.92 1021.01 1021.15 1021.32 1021.51 1021.66 1021.77 1021.81 1021.78 1021.69 1021.56 1021.44 1021.35 1021.29 1021.28 1021.30 1021.34 1021.38 1021.40 1021.39 1021.38 1021.36 1021.37
1014.63 1015.30 1015.84 1016.22 1016.44 1016.55 1016.61 1016.69 1016.87 1017.17 1017.60 1018.13 1018.71 1019.28 1019.78 1020.17 1020.44 1020.61 1020.71 1020.79 1020.87 1020.99 1021.15 1021.35 1021.55 1021.72 1021.84 1021.89 1021.87 1021.80 1021.71 1021.62 1021.56 1021.54 1021.56 1021.61 1021.65 1021.69 1021.69 1021.66 1021.60 1021.54 1021.50
1014.16 1014.84 1015.43 1015.88 1016.19 1016.39 1016.54 1016.69 1016.92 1017.24 1017.66 1018.16 1018.70 1019.22 1019.67 1020.03 1020.29 1020.46 1020.57 1020.67 1020.78 1020.92 1021.11 1021.31 1021.52 1021.70 1021.83 1021.89 1021.90 1021.86 1021.81 1021.77 1021.75 1021.78 1021.84 1021.91 1021.98 1022.02 1022.01 1021.96 1021.87 1021.77 1021.67
1013.65 1014.35 1014.98 1015.50 1015.89 1016.19 1016.43 1016.65 1016.92 1017.26 1017.67 1018.14 1018.63 1019.10 1019.52 1019.85 1020.10 1020.27 1020.40 1020.52 1020.65 1020.81 1021.01 1021.22 1021.43 1021.61 1021.74 1021.82 1021.85 1021.85 1021.84 1021.85 1021.89 1021.97 1022.07 1022.18 1022.27 1022.32 1022.31 1022.24 1022.13 1022.00 1021.86
1013.20 1013.90 1014.56 1015.13 1015.60 1015.97 1016.28 1016.57 1016.88 1017.22 1017.62 1018.06 1018.51 1018.94 1019.32 1019.63 1019.87 1020.05 1020.20 1020.34 1020.49 1020.66 1020.86 1021.07 1021.28 1021.45 1021.59 1021.68 1021.73 1021.77 1021.80 1021.86 1021.94 1022.06 1022.20 1022.34 1022.45 1022.52 1022.52 1022.45 1022.34 1022.19 1022.02
1012.86 1013.54 1014.21 1014.81 1015.33 1015.76 1016.13 1016.46 1016.79 1017.14 1017.52 1017.93 1018.34 1018.74 1019.09 1019.38 1019.62 1019.81 1019.97 1020.13 1020.29 1020.47 1020.66 1020.86 1021.06 1021.23 1021.36 1021.46 1021.54 1021.60 1021.67 1021.76 1021.88 1022.03 1022.19 1022.35 1022.47 1022.56 1022.58 1022.53 1022.43 1022.29 1022.12
1012.64 1013.29 1013.95 1014.56 1015.10 1015.56 1015.96 1016.32 1016.67 1017.02 1017.39 1017.77 1018.15 1018.52 1018.84 1019.12 1019.36 1019.55 1019.72 1019.88 1020.05 1020.23 1020.41 1020.60 1020.78 1020.94 1021.07 1021.18 1021.27 1021.35 1021.44 1021.54 1021.68 1021.84 1022.01 1022.17 1022.31 1022.40 1022.44 1022.43 1022.36 1022.25 1022.12
1012.54 1013.15 1013.77 1014.36 1014.90 1015.38 1015.81 1016.19 1016.55 1016.90 1017.26 1017.62 1017.97 1018.30 1018.61 1018.87 1019.10 1019.29 1019.46 1019.62 1019.79 1019.95 1020.13 1020.30 1020.46 1020.61 1020.74 1020.84 1020.93 1021.02 1021.11 1021.22 1021.35 1021.50 1021.66 1021.81 1021.94 1022.05 1022.11 1022.13 1022.11 1022.05 1021.97
1012.53 1013.07 1013.65 1014.21 1014.75 1015.23 1015.67 1016.06 1016.44 1016.79 1017.14 1017.48 1017.81 1018.12 1018.40 1018.65 1018.86 1019.05 1019.21 1019.36 1019.51 1019.67 1019.82 1019.98 1020.13 1020.26 1020.38 1020.48 1020.56 1020.65 1020.73 1020.83 1020.93 1021.05 1021.18 1021.30 1021.42 1021.52 1021.60 1021.65 1021.68 1021.69 1021.68
1012.56 1013.05 1013.58 1014.11 1014.63 1015.11 1015.56 1015.97 1016.36 1016.73 1017.07 1017.41 1017.72 1018.00 1018.26 1018.48 1018.67 1018.84 1018.99 1019.13 1019.26 1019.40 1019.53 1019.67 1019.80 1019.92 1020.02 1020.11 1020.19 1020.26 1020.32 1020.38 1020.45 1020.53 1020.61 1020.70 1020.79 1020.87 1020.96 1021.04 1021.12 1021.19 1021.25
1012.65 1013.09 1013.57 1014.07 1014.56 1015.04 1015.50 1015.93 1016.34 1016.71 1017.06 1017.39 1017.69 1017.95 1018.18 1018.38 1018.55 1018.69 1018.82 1018.94 1019.05 1019.17 1019.28 1019.40 1019.51 1019.61 1019.70 1019.77 1019.83 1019.87 1019.91 1019.93 1019.96 1019.98 1020.01 1020.05 1020.10 1020.16 1020.24 1020.34 1020.45 1020.57 1020.69
1012.80 1013.19 1013.63 1014.09 1014.57 1015.05 1015.51 1015.95 1016.37 1016.76 1017.12 1017.43 1017.72 1017.96 1018.17 1018.34 1018.48 1018.60 1018.71 1018.81 1018.90 1018.99 1019.09 1019.18 1019.27 1019.35 1019.41 1019.46 1019.50 1019.51 1019.51 1019.49 1019.47 1019.44 1019.41 1019.40 1019.40 1019.44 1019.50 1019.60 1019.72 1019.87 1020.04
1013.04 1013.39 1013.79 1014.22 1014.67 1015.14 1015.60 1016.04 1016.47 1016.86 1017.21 1017.53 1017.80 1018.02 1018.21 1018.36 1018.48 1018.58 1018.66 1018.74 1018.81 1018.88 1018.95 1019.02 1019.08 1019.13 1019.17 1019.19 1019.19 1019.17 1019.13 1019.07 1019.00 1018.92 1018.84 1018.78 1018.74 1018.73 1018.77 1018.85 1018.97 1019.13 1019.32
1013.39 1013.71 1014.07 1014.46 1014.88 1015.31 1015.76 1016.19 1016.60 1016.99 1017.33 1017.64 1017.89 1018.11 1018.28 1018.41 1018.52 1018.60 1018.67 1018.72 1018.77 1018.82 1018.86 1018.90 1018.92 1018.94 1018.94 1018.92 1018.89 1018.83 1018.75 1018.65 1018.54 1018.42 1018.30 1018.19 1018.11 1018.06 1018.07 1018.12 1018.23 1018.39 1018.57
1013.88 1014.17 1014.48 1014.82 1015.19 1015.58 1015.98 1016.38 1016.76 1017.13 1017.45 1017.74 1017.98 1018.18 1018.34 1018.47 1018.56 1018.64 1018.69 1018.73 1018.76 1018.78 1018.79 1018.79 1018.77 1018.75 1018.70 1018.65 1018.57 1018.47 1018.36 1018.23 1018.08 1017.92 1017.77 1017.63 1017.52 1017.44 1017.41 1017.44 1017.52 1017.65 1017.82
1014.48 1014.73 1014.99 1015.27 1015.57 1015.90 1016.24 1016.59 1016.93 1017.25 1017.55 1017.81 1018.04 1018.23 1018.38 1018.50 1018.60 1018.66 1018.71 1018.73 1018.74 1018.73 1018.70 1018.66 1018.60 1018.52 1018.43 1018.33 1018.21 1018.07 1017.93 1017.77 1017.60 1017.42 1017.25 1017.09 1016.96 1016.86 1016.80 1016.80 1016.86 1016.96 1017.10
1015.13 1015.34 1015.55 1015.76 1015.99 1016.24 1016.51 1016.79 1017.08 1017.35 1017.62 1017.85 1018.06 1018.24 1018.39 1018.51 1018.59 1018.65 1018.69 1018.70 1018.68 1018.64 1018.57 1018.48 1018.37 1018.24 1018.10 1017.94 1017.78 1017.62 1017.44 1017.26 1017.08 1016.90 1016.72 1016.55 1016.41 1016.29 1016.22 1016.20 1016.23 1016.30 1016.42
1015.76 1015.94 1016.09 1016.24 1016.40 1016.57 1016.77 1016.98 1017.21 1017.44 1017.66 1017.87 1018.05 1018.22 1018.36 1018.47 1018.55 1018.60 1018.62 1018.60 1018.56 1018.48 1018.37 1018.23 1018.06 1017.88 1017.70 1017.50 1017.30 1017.11 1016.92 1016.72 1016.54 1016.35 1016.17 1016.01 1015.86 1015.74 1015.66 1015.62 1015.63 1015.68 1015.77
1016.32 1016.46 1016.57 1016.66 1016.76 1016.87 1017.00 1017.15 1017.32 1017.51 1017.69 1017.87 1018.03 1018.18 1018.30 1018.40 1018.46 1018.49 1018.49 1018.44 1018.36 1018.24 1018.08 1017.90 1017.69 1017.46 1017.23 1017.00 1016.78 1016.56 1016.36 1016.16 1015.97 1015.79 1015.62 1015.46 1015.31 1015.19 1015.10 1015.05 1015.04 1015.06 1015.13
1016.73 1016.85 1016.93 1016.99 1017.05 1017.11 1017.20 1017.31 1017.44 1017.58 1017.73 1017.87 1018.01 1018.13 1018.23 1018.30 1018.33 1018.33 1018.29 1018.21 1018.09 1017.92 1017.72 1017.49 1017.25 1016.99 1016.73 1016.47 1016.23 1016.00 1015.79 1015.59 1015.40 1015.23 1015.06 1014.90 1014.76 1014.63 1014.54 1014.47 1014.44 1014.44 1014.48
1016.97 1017.09 1017.16 1017.21 1017.25 1017.30 1017.37 1017.45 1017.55 1017.66 1017.78 1017.89 1018.00 1018.08 1018.14 1018.17 1018.17 1018.12 1018.04 1017.91 1017.74 1017.54 1017.30 1017.04 1016.76 1016.47 1016.20 1015.93 1015.68 1015.45 1015.24 1015.04 1014.85 1014.68 1014.51 1014.34 1014.19 1014.06 1013.95 1013.86 1013.80 1013.78 1013.78
1017.06 1017.19 1017.28 1017.34 1017.39 1017.44 1017.50 1017.58 1017.66 1017.75 1017.84 1017.91 1017.98 1018.02 1018.03 1018.01 1017.95 1017.86 1017.72 1017.55 1017.34 1017.09 1016.82 1016.54 1016.24 1015.95 1015.66 1015.40 1015.15 1014.92 1014.71 1014.52 1014.33 1014.15 1013.97 1013.79 1013.62 1013.46 1013.32 1013.20 1013.11 1013.05 1013.03
1017.03 1017.18 1017.29 1017.38 1017.46 1017.53 1017.60 1017.67 1017.74 1017.81 1017.86 1017.90 1017.92 1017.91 1017.87 1017.79 1017.68 1017.53 1017.35 1017.13 1016.88 1016.60 1016.31 1016.01 1015.71 1015.41 1015.14 1014.88 1014.64 1014.42 1014.22 1014.02 1013.83 1013.64 1013.44 1013.24 1013.04 1012.85 1012.67 1012.50 1012.36 1012.26 1012.20
Thickness
5604 5607 5610 5613 5616 5618 5620 5621 5621 5622 5623 5624 5623 5623 5623 5624 5624 5625 5625 5625 5626 5627 5629 5630 5630 5630 5630 5630 5630 5630 5630 5630 5630 5629 5629 5631 5631 5629 5628 5626 5623 5621 5619
5601 5604 5606 5608 5611 5612 5614 5615 5615 5616 5617 5617 5617 5617 5617 5616 5617 5617 5617 5617 5618 5618 5620 5620 5621 5621 5621 5621 5621 5621 5621 5621 5621 5619 5618 5618 5618 5619 5620 5617 5615 5613 5611
5599 5601 5603 5604 5606 5607 5608 5609 5609 5610 5611 5611 5610 5611 5610 5610 5610 5609 5609 5610 5610 5610 5611 5611 5612 5612 5612 5611 5611 5611 5611 5609 5610 5610 5608 5606 5606 5606 5608 5608 5607 5604 5602
5599 5600 5601 5602 5602 5603 5603 5603 5604 5604 5605 5604 5603 5603 5603 5603 5603 5603 5603 5603 5602 5602 5602 5603 5603 5603 5603 5602 5602 5602 5602 5601 5599 5600 5599 5598 5596 5594 5594 5596 5597 5595 5593
5599 5599 5599 5599 5599 5599 5599 5599 5600 5599 5598 5597 5597 5596 5596 5596 5596 5596 5596 5596 5595 5594 5594 5595 5595 5594 5594 5593 5593 5593 5592 5591 5590 5589 5588 5588 5587 5586 5583 5582 5583 5583 5582
5597 5597 5596 5595 5595 5594 5594 5594 5594 5593 5592 5591 5590 5590 5590 5589 5588 5588 5588 5588 5587 5587 5586 5587 5586 5585 5585 5584 5584 5583 5583 5582 5581 5580 5578 5576 5574 5573 5572 5571 5570 5570 5570
5593 5593 5592 5592 5590 5590 5589 5588 5588 5586 5585 5584 5584 5584 5583 5582 5582 5582 5581 5581 5580 5579 5579 5579 5577 5576 5576 5575 5575 5574 5573 5572 5571 5569 5568 5566 5564 5563 5561 5559 5558 5558 5559
5589 5589 5589 5588 5587 5586 5585 5583 5582 5581 5579 5578 5578 5577 5577 5576 5576 5576 5575 5574 5573 5572 5572 5570 5569 5569 5568 5567 5566 5564 5563 5563 5561 5560 5557 5555 5554 5552 5549 5547 5545 5544 5545
5586 5586 5586 5585 5584 5582 5580 5579 5577 5576 5574 5573 5572 5571 5570 5570 5569 5568 5567 5566 5566 5565 5564 5563 5561 5561 5559 5558 5556 5555 5554 5552 5551 5549 5547 5545 5543 5541 5538 5536 5533 5530 5530
5583 5583 5582 5581 5579 5577 5575 5573 5572 5570 5568 5567 5566 5565 5563 5562 5562 5560 5559 5558 5557 5557 5556 5555 5553 5552 5551 5549 5547 5545 5543 5542 5540 5538 5536 5534 5532 5529 5527 5524 5521 5517 5515
5580 5579 5577 5576 5574 5572 5570 5567 5565 5564 5562 5560 5559 5558 5556 5555 5553 5552 5551 5550 5549 5548 5547 5546 5544 5543 5541 5540 5537 5535 5533 5531 5529 5527 5525 5523 5520 5518 5515 5512 5509 5505 5502
5576 5574 5572 5571 5568 5566 5564 5561 5559 5557 5555 5553 5551 5550 5549 5547 5545 5544 5543 5543 5541 5540 5539 5537 5535 5534 5532 5530 5528 5525 5523 5521 5519 5516 5514 5511 5509 5506 5503 5500 5497 5493 5491
5571 5568 5566 5564 5562 5560 5558 5555 5553 5551 5549 5546 5544 5542 5540 5538 5537 5536 5535 5534 5533 5532 5530 5528 5526 5524 5522 5520 5518 5516 5514 5511 5508 5506 5503 5500 5497 5494 5491 5489 5485 5482 5480
5564 5562 5559 5558 5556 5554 5552 5549 5546 5543 5541 5538 5535 5533 5531 5530 5529 5528 5527 5526 5525 5523 5521 5519 5517 5514 5512 5510 5508 5506 5504 5501 5498 5496 5493 5489 5486 5483 5480 5477 5474 5471 5467
5557 5555 5552 5550 5548 5547 5544 5541 5538 5535 5533 5529 5527 5524 5523 5521 5520 5518 5517 5516 5515 5513 5511 5509 5507 5505 5502 5500 5498 5495 5493 5490 5487 5485 5482 5479 5476 5473 5469 5466 5463 5459 5455
5550 5548 5546 5543 5540 5538 5535 5533 5529 5526 5523 5520 5518 5516 5514 5511 5510 5509 5507 5505 5504 5502 5501 5499 5497 5495 5493 5491 5488 5485 5482 5479 5476 5474 5471 5468 5465 5462 5459 5456 5453 5449 5445
5542 5539 5536 5533 5531 5528 5526 5523 5520 5517 5513 5511 5509 5506 5504 5502 5500 5499 5496 5495 5493 5492 5490 5488 5486 5484 5482 5480 5478 5475 5471 5468 5466 5463 5460 5458 5455 5452 5448 5445 5443 5439 5436
5534 5531 5527 5524 5521 5519 5516 5513 5510 5506 5503 5501 5499 5497 5494 5492 5490 5487 5485 5484 5483 5481 5480 5478 5476 5474 5472 5470 5467 5465 5461 5458 5455 5452 5450 5447 5444 5441 5437 5434 5431 5427 5424
5523 5520 5517 5513 5510 5508 5505 5502 5499 5495 5493 5491 5489 5487 5484 5482 5479 5477 5475 5474 5472 5471 5469 5468 5466 5463 5461 5459 5457 5454 5450 5447 5444 5442 5439 5436 5433 5431 5428 5423 5419 5416 5414
5512 5509 5505 5502 5499 5496 5494 5490 5487 5484 5482 5480 5478 5476 5474 5471 5469 5467 5466 5464 5462 5460 5459 5457 5455 5453 5450 5449 5446 5443 5439 5436 5434 5431 5429 5426 5423 5420 5416 5412 5408 5405 5403
5500 5497 5494 5490 5487 5485 5482 5478 5476 5473 5472 5470 5468 5465 5463 5461 5459 5457 5455 5453 5451 5449 5447 5446 5444 5442 5440 5438 5436 5433 5428 5425 5422 5420 5417 5415 5412 5409 5406 5402 5398 5395 5392
5488 5485 5480 5478 5476 5474 5470 5467 5465 5463 5461 5458 5456 5454 5452 5450 5449 5445 5443 5441 5439 5437 5435 5434 5432 5431 5429 5427 5425 5422 5418 5415 5411 5409 5406 5403 5401 5398 5395 5391 5388 5385 5382
5476 5473 5469 5466 5464 5462 5459 5456 5455 5452 5450 5447 5444 5442 5441 5439 5437 5434 5431 5429 5427 5425 5424 5422 5421 5419 5417 5415 5414 5411 5407 5404 5400 5398 5395 5392 5390 5387 5384 5381 5377 5373 5369
5463 5460 5457 5454 5453 5451 5448 5446 5444 5441 5438 5436 5433 5431 5429 5427 5425 5423 5421 5418 5416 5414 5413 5411 5409 5408 5405 5403 5400 5398 5395 5392 5389 5386 5383 5381 5378 5375 5372 5369 5366 5362 5359
5450 5447 5445 5443 5442 5440 5437 5435 5432 5429 5427 5424 5422 5420 5418 5416 5414 5412 5410 5408 5407 5404 5402 5400 5398 5395 5394 5393 5390 5386 5383 5379 5376 5373 5371 5368 5365 5362 5360 5357 5355 5352 5348
5438 5435 5433 5431 5429 5427 5425 5423 5421 5418 5415 5413 5411 5408 5406 5404 5402 5400 5398 5398 5396 5395 5393 5391 5388 5386 5384 5382 5380 5376 5373 5370 5366 5362 5359 5357 5355 5352 5350 5347 5345 5342 5338